Tracking 30102 objects as of 12-Dec-2024
HD Live streaming from Space Station
objects crossing your sky now

STARLINK-32415

Track STARLINK-32415 now!
10-day predictions
STARLINK-32415 is classified as:


NORAD ID: 61861
Int'l Code: 2024-202S
Perigee: 450.2 km
Apogee: 452.3 km
Inclination: 43.0 °
Period: 93.5 minutes
Semi major axis: 6822 km
RCS: Unknown
Launch date: November 7, 2024
Source: United States (US)
Launch site: AIR FORCE EASTERN TEST RANGE (AFETR)
Your satellite tracking list
Your tracking list is empty




NASA's NSSDC Master Catalog

Two Line Element Set (TLE):
1 61861U 24202S   24347.11594334 -.00002605  00000-0 -55165-4 0  9993
2 61861  43.0006 284.1610 0001492 268.7560  91.3125 15.40674886  6263
Source of the keplerian elements: AFSPC